TimeMST,TemperatureF,Dew PointF,Humidity,Sea Level PressureIn,VisibilityMPH,Wind Direction,Wind SpeedMPH,Gust SpeedMPH,PrecipitationIn,Events,Conditions,WindDirDegrees,DateUTC
12:15 AM,51.8,26.6,38,29.80,10.0,West,19.6,24.2,N/A,,Clear,270,2013-11-20 07:15:00
12:35 AM,50.0,26.6,40,29.80,10.0,West,17.3,-,N/A,,Clear,280,2013-11-20 07:35:00
12:55 AM,50.0,26.6,40,29.81,10.0,West,15.0,-,N/A,,Clear,280,2013-11-20 07:55:00
1:15 AM,46.4,26.6,46,29.81,10.0,West,10.4,-,N/A,,Mostly Cloudy,260,2013-11-20 08:15:00
1:35 AM,46.4,26.6,46,29.81,10.0,West,12.7,-,N/A,,Mostly Cloudy,270,2013-11-20 08:35:00
1:55 AM,46.4,26.6,46,29.82,10.0,West,11.5,-,N/A,,Scattered Clouds,260,2013-11-20 08:55:00
2:15 AM,46.4,26.6,46,29.82,10.0,West,18.4,-,N/A,,Scattered Clouds,280,2013-11-20 09:15:00
2:35 AM,50.0,26.6,40,29.82,10.0,West,23.0,27.6,N/A,,Mostly Cloudy,270,2013-11-20 09:35:00
2:55 AM,48.2,26.6,43,29.82,10.0,West,13.8,-,N/A,,Mostly Cloudy,270,2013-11-20 09:55:00
3:15 AM,48.2,26.6,43,29.82,10.0,WNW,11.5,-,N/A,,Scattered Clouds,300,2013-11-20 10:15:00
3:35 AM,46.4,28.4,50,29.82,10.0,WNW,12.7,-,N/A,,Scattered Clouds,290,2013-11-20 10:35:00
3:55 AM,46.4,28.4,50,29.82,10.0,WSW,16.1,19.6,N/A,,Scattered Clouds,240,2013-11-20 10:55:00
4:15 AM,44.6,26.6,49,29.82,10.0,West,11.5,-,N/A,,Clear,270,2013-11-20 11:15:00
4:35 AM,44.6,26.6,49,29.83,10.0,West,11.5,-,N/A,,Clear,280,2013-11-20 11:35:00
4:55 AM,44.6,26.6,49,29.84,10.0,West,9.2,-,N/A,,Clear,280,2013-11-20 11:55:00
5:45 AM,44.6,26.6,49,29.83,30.0,NNW,9.2,-,N/A,,Scattered Clouds,340,2013-11-20 12:45:00
9:52 AM,53.6,23.0,30,29.80,70.0,South,3.5,-,N/A,,Scattered Clouds,170,2013-11-20 16:52:00
10:55 AM,53.6,21.2,28,29.84,70.0,Calm,Calm,-,N/A,,Scattered Clouds,0,2013-11-20 17:55:00
11:50 AM,57.2,23.0,27,29.82,70.0,Variable,5.8,-,N/A,,Scattered Clouds,0,2013-11-20 18:50:00
1:50 PM,59.0,21.2,23,29.78,40.0,Variable,5.8,-,N/A,,Scattered Clouds,0,2013-11-20 20:50:00
2:50 PM,59.0,21.2,23,29.79,40.0,Variable,5.8,-,N/A,,Scattered Clouds,0,2013-11-20 21:50:00
3:55 PM,53.6,23.0,30,29.81,40.0,Variable,5.8,-,N/A,,Mostly Cloudy,0,2013-11-20 22:55:00
4:50 PM,53.6,23.0,30,29.83,20.0,Variable,3.5,-,N/A,,Mostly Cloudy,0,2013-11-20 23:50:00
5:50 PM,51.8,23.0,33,29.84,20.0,Variable,5.8,-,N/A,,Mostly Cloudy,0,2013-11-21 00:50:00
6:45 PM,48.2,24.8,40,29.84,20.0,WNW,8.1,-,N/A,,Scattered Clouds,300,2013-11-21 01:45:00
7:48 PM,48.2,24.8,40,29.85,20.0,NW,10.4,-,N/A,,Scattered Clouds,310,2013-11-21 02:48:00
8:55 PM,48.2,39.2,71,29.87,20.0,NW,10.4,-,N/A,,Scattered Clouds,320,2013-11-21 03:55:00
9:47 PM,48.2,24.8,40,29.89,20.0,NNW,10.4,-,N/A,,Scattered Clouds,330,2013-11-21 04:47:00
10:15 PM,46.4,26.6,46,29.92,10.0,North,15.0,-,N/A,,Scattered Clouds,10,2013-11-21 05:15:00
10:35 PM,35.6,24.8,65,29.95,7.0,North,25.3,33.4,N/A,,Mostly Cloudy,10,2013-11-21 05:35:00
10:55 PM,32.0,24.8,75,29.98,10.0,North,25.3,31.1,N/A,,Overcast,350,2013-11-21 05:55:00
11:15 PM,32.0,24.8,75,29.99,10.0,North,24.2,29.9,N/A,,Overcast,360,2013-11-21 06:15:00
11:35 PM,30.2,26.6,86,30.01,3.0,North,17.3,21.9,N/A,Snow,Light Snow,360,2013-11-21 06:35:00
11:55 PM,30.2,26.6,86,30.03,2.5,North,15.0,-,N/A,Snow,Light Snow,360,2013-11-21 06:55:00